AAL829 KBHM-SKPE

Flight info

Callsign AAL829
Flight time N/A
Altitude 35000
Route JYROD Q110 SHEEK Q118 FEMID Q79 VAULT/N0460F360 Q79 MCLAW Y442 FUNDI/N0458F370 UM335 ARNAL UL465 TBG UP527 UIB UIB1A
Aircraft B738/M-SDE2E3FGHIRWXY/LB1

Departure

Time 2026-04-20 17:46
Airport Birmingham-Shuttlesworth International Airport (KBHM)

Arrival

Time N/A
Airport Matecaña International Airport (SKPE)
Time Latitude Longitude Altitude Speed Heading
2026-04-20 17:20 33.56303 -86.75184 607 ft 0 kts 147°
2026-04-20 17:33 33.56324 -86.75201 610 ft 4 kts 146°
2026-04-20 17:34 33.56345 -86.75217 612 ft 3 kts 146°
2026-04-20 17:34 33.56361 -86.75238 620 ft 4 kts 98°
2026-04-20 17:34 33.56355 -86.75265 623 ft 4 kts 56°
2026-04-20 17:34 33.56349 -86.75274 614 ft 0 kts 56°
2026-04-20 17:35 33.56349 -86.75275 614 ft 0 kts 56°
2026-04-20 17:38 33.56353 -86.75268 616 ft 4 kts 56°
2026-04-20 17:39 33.56378 -86.75225 613 ft 7 kts 56°
2026-04-20 17:39 33.56405 -86.75177 608 ft 7 kts 56°
2026-04-20 17:39 33.56435 -86.75136 617 ft 7 kts 28°
2026-04-20 17:39 33.56481 -86.75142 617 ft 7 kts 338°
2026-04-20 17:40 33.56528 -86.75129 610 ft 8 kts 45°
2026-04-20 17:40 33.56562 -86.75075 606 ft 8 kts 54°
2026-04-20 17:40 33.56592 -86.75015 610 ft 8 kts 69°
2026-04-20 17:40 33.56601 -86.74944 606 ft 9 kts 93°
2026-04-20 17:41 33.56608 -86.74862 619 ft 11 kts 71°
2026-04-20 17:41 33.56647 -86.74783 610 ft 11 kts 55°
2026-04-20 17:41 33.56691 -86.74706 610 ft 11 kts 56°
2026-04-20 17:41 33.56738 -86.74625 619 ft 12 kts 55°
2026-04-20 17:42 33.56786 -86.74543 610 ft 12 kts 55°
2026-04-20 17:42 33.56834 -86.74462 607 ft 12 kts 54°
2026-04-20 17:42 33.56880 -86.74384 607 ft 11 kts 54°
2026-04-20 17:42 33.56923 -86.74309 607 ft 11 kts 56°
2026-04-20 17:43 33.56965 -86.74233 606 ft 11 kts 56°
2026-04-20 17:43 33.57007 -86.74161 615 ft 10 kts 56°
2026-04-20 17:43 33.57047 -86.74090 611 ft 11 kts 56°
2026-04-20 17:43 33.57096 -86.74005 607 ft 16 kts 55°
2026-04-20 17:44 33.57158 -86.73898 610 ft 15 kts 55°
2026-04-20 17:44 33.57244 -86.73856 616 ft 15 kts 338°
2026-04-20 17:44 33.57323 -86.73926 616 ft 12 kts 289°
2026-04-20 17:44 33.57305 -86.73987 617 ft 9 kts 236°
2026-04-20 17:45 33.57148 -86.74264 617 ft 76 kts 235°
2026-04-20 17:45 33.56719 -86.75007 618 ft 139 kts 236°
2026-04-20 17:45 33.56057 -86.76130 696 ft 183 kts 234°
2026-04-20 17:45 33.55279 -86.77454 1213 ft 204 kts 235°
2026-04-20 17:46 33.54445 -86.78878 1897 ft 209 kts 235°
2026-04-20 17:46 33.53633 -86.80308 2548 ft 209 kts 235°
2026-04-20 17:46 33.52466 -86.81419 2810 ft 231 kts 197°
2026-04-20 17:46 33.50852 -86.81330 3267 ft 240 kts 156°
2026-04-20 17:47 33.49446 -86.80203 3897 ft 247 kts 139°
2026-04-20 17:47 33.48113 -86.78776 4309 ft 266 kts 135°
2026-04-20 17:47 33.46739 -86.77212 5064 ft 276 kts 134°
2026-04-20 17:47 33.45337 -86.75608 5830 ft 282 kts 134°
2026-04-20 17:48 33.43916 -86.73980 6551 ft 288 kts 133°
2026-04-20 17:48 33.42443 -86.72304 7305 ft 294 kts 134°
2026-04-20 17:48 33.40944 -86.70606 8033 ft 298 kts 134°
2026-04-20 17:48 33.39414 -86.68879 8760 ft 303 kts 134°
2026-04-20 17:49 33.37887 -86.67160 9487 ft 308 kts 135°
2026-04-20 17:49 33.36309 -86.65390 10193 ft 314 kts 135°
2026-04-20 17:49 33.34664 -86.63545 10470 ft 335 kts 135°
2026-04-20 17:49 33.32907 -86.61577 10645 ft 357 kts 135°
2026-04-20 17:50 33.31031 -86.59481 10929 ft 375 kts 136°
2026-04-20 17:50 33.29125 -86.57354 11476 ft 382 kts 136°
2026-04-20 17:50 33.27161 -86.55169 12139 ft 386 kts 136°
2026-04-20 17:50 33.25177 -86.52962 12780 ft 391 kts 136°
2026-04-20 17:51 33.23192 -86.50755 13415 ft 396 kts 137°
2026-04-20 17:51 33.21165 -86.48502 14073 ft 400 kts 137°
2026-04-20 17:51 33.19114 -86.46224 14642 ft 405 kts 137°
2026-04-20 17:51 33.17035 -86.43914 15244 ft 409 kts 137°
2026-04-20 17:52 33.14938 -86.41587 15872 ft 411 kts 137°
2026-04-20 17:52 33.12845 -86.39267 16460 ft 415 kts 137°
2026-04-20 17:52 33.10720 -86.36912 17024 ft 419 kts 136°
2026-04-20 17:52 33.08568 -86.34528 17619 ft 423 kts 136°
2026-04-20 17:53 33.06406 -86.32135 18197 ft 426 kts 136°
2026-04-20 17:53 33.04241 -86.29741 18749 ft 430 kts 136°
2026-04-20 17:53 33.02031 -86.27299 19208 ft 434 kts 136°
2026-04-20 17:53 32.99807 -86.24842 19666 ft 438 kts 137°
2026-04-20 17:54 32.97554 -86.22356 20120 ft 442 kts 137°
2026-04-20 17:54 32.95317 -86.19889 20545 ft 446 kts 137°
2026-04-20 17:54 32.93026 -86.17365 20976 ft 449 kts 137°
2026-04-20 17:54 32.90720 -86.14825 21389 ft 452 kts 137°
2026-04-20 17:55 32.88397 -86.12269 21718 ft 456 kts 137°
2026-04-20 17:55 32.86075 -86.09717 22053 ft 460 kts 137°
2026-04-20 17:55 32.83702 -86.07110 22418 ft 463 kts 138°
2026-04-20 17:55 32.81355 -86.04533 22761 ft 466 kts 138°
2026-04-20 17:56 32.78954 -86.01901 23111 ft 469 kts 138°
2026-04-20 17:56 32.76536 -85.99250 23443 ft 473 kts 138°
2026-04-20 17:56 32.74105 -85.96588 23760 ft 476 kts 138°
2026-04-20 17:56 32.71693 -85.93948 24019 ft 480 kts 139°
2026-04-20 17:57 32.69217 -85.91240 24276 ft 483 kts 139°
2026-04-20 17:57 32.66732 -85.88525 24538 ft 486 kts 139°
2026-04-20 17:57 32.64249 -85.85815 24821 ft 488 kts 139°
2026-04-20 17:57 32.61735 -85.83071 25081 ft 491 kts 140°
2026-04-20 17:58 32.59196 -85.80304 25339 ft 494 kts 140°
2026-04-20 17:58 32.56684 -85.77568 25579 ft 497 kts 140°
2026-04-20 17:58 32.54116 -85.74774 25810 ft 501 kts 140°
2026-04-20 17:58 32.51553 -85.71987 26025 ft 504 kts 141°
2026-04-20 17:59 32.48962 -85.69172 26268 ft 506 kts 141°
2026-04-20 17:59 32.46349 -85.66334 26510 ft 509 kts 141°
2026-04-20 17:59 32.43727 -85.63490 26739 ft 511 kts 141°
2026-04-20 17:59 32.41096 -85.60639 26953 ft 514 kts 141°
2026-04-20 18:00 32.38441 -85.57763 27174 ft 516 kts 142°
2026-04-20 18:00 32.35818 -85.54924 27404 ft 518 kts 142°
2026-04-20 18:00 32.33144 -85.52033 27634 ft 520 kts 142°
2026-04-20 18:00 32.30467 -85.49141 27825 ft 523 kts 142°
2026-04-20 18:01 32.27769 -85.46229 27983 ft 526 kts 142°
2026-04-20 18:01 32.25061 -85.43309 28199 ft 527 kts 142°
2026-04-20 18:01 32.22354 -85.40391 28435 ft 529 kts 142°
2026-04-20 18:01 32.19659 -85.37488 28657 ft 530 kts 143°
2026-04-20 18:02 32.16918 -85.34539 28846 ft 532 kts 143°
2026-04-20 18:02 32.14173 -85.31590 29027 ft 535 kts 143°
2026-04-20 18:02 32.11416 -85.28629 29208 ft 537 kts 143°
2026-04-20 18:02 32.08645 -85.25656 29400 ft 538 kts 143°
2026-04-20 18:03 32.05891 -85.22703 29586 ft 540 kts 143°
2026-04-20 18:03 32.03103 -85.19717 29759 ft 542 kts 143°
2026-04-20 18:03 32.00295 -85.16711 29917 ft 544 kts 143°
2026-04-20 18:03 31.97487 -85.13708 30096 ft 546 kts 143°
2026-04-20 18:04 31.94664 -85.10691 30273 ft 547 kts 143°
2026-04-20 18:04 31.91871 -85.07709 30500 ft 547 kts 143°
2026-04-20 18:04 31.89054 -85.04701 30728 ft 546 kts 143°
2026-04-20 18:04 31.86224 -85.01685 30976 ft 545 kts 143°
2026-04-20 18:05 31.80624 -84.95722 31383 ft 545 kts 144°
2026-04-20 18:05 31.77801 -84.92722 31605 ft 544 kts 144°
2026-04-20 18:05 31.74988 -84.89734 31841 ft 543 kts 144°
2026-04-20 18:06 31.72209 -84.86785 32095 ft 542 kts 144°
2026-04-20 18:06 31.69402 -84.83808 32305 ft 542 kts 144°
2026-04-20 18:06 31.66585 -84.80824 32511 ft 542 kts 144°
2026-04-20 18:06 31.63810 -84.77887 32719 ft 541 kts 144°
2026-04-20 18:07 31.61011 -84.74926 32950 ft 540 kts 144°
2026-04-20 18:07 31.58211 -84.71968 33185 ft 540 kts 145°
2026-04-20 18:07 31.55446 -84.69047 33397 ft 539 kts 145°
2026-04-20 18:07 31.52668 -84.66116 33605 ft 539 kts 145°
2026-04-20 18:08 31.49866 -84.63162 33829 ft 538 kts 145°
2026-04-20 18:08 31.46999 -84.60343 34037 ft 530 kts 153°
2026-04-20 18:08 31.43964 -84.57928 34244 ft 525 kts 156°
2026-04-20 18:08 31.40934 -84.55643 34456 ft 523 kts 157°
2026-04-20 18:09 31.37858 -84.53364 34633 ft 522 kts 157°
2026-04-20 18:09 31.34781 -84.51087 34767 ft 523 kts 157°
2026-04-20 18:09 31.31735 -84.48819 34907 ft 523 kts 157°
2026-04-20 18:09 31.28657 -84.46508 35066 ft 523 kts 156°
2026-04-20 18:10 31.25592 -84.44191 35245 ft 523 kts 156°
2026-04-20 18:10 31.22532 -84.41869 35405 ft 523 kts 156°
2026-04-20 18:10 31.19522 -84.39584 35548 ft 523 kts 156°
2026-04-20 18:10 31.16444 -84.37248 35684 ft 523 kts 156°
2026-04-20 18:11 31.13390 -84.34934 35821 ft 523 kts 156°
2026-04-20 18:11 31.10329 -84.32616 35966 ft 523 kts 156°
2026-04-20 18:11 31.07325 -84.30345 36102 ft 523 kts 157°
2026-04-20 18:11 31.04263 -84.28033 36243 ft 523 kts 157°
2026-04-20 18:12 31.01197 -84.25719 36413 ft 522 kts 157°
2026-04-20 18:12 30.98150 -84.23420 36623 ft 520 kts 157°
2026-04-20 18:12 30.95105 -84.21124 36835 ft 518 kts 157°
2026-04-20 18:12 30.92114 -84.18872 37000 ft 517 kts 157°
2026-04-20 18:13 30.89078 -84.16589 37108 ft 518 kts 157°
2026-04-20 18:13 30.86041 -84.14309 37211 ft 518 kts 157°
2026-04-20 18:13 30.79973 -84.09756 37322 ft 520 kts 156°
2026-04-20 18:14 30.73889 -84.05198 37328 ft 521 kts 156°
2026-04-20 18:14 30.67811 -84.00647 37325 ft 522 kts 156°
2026-04-20 18:15 30.62725 -83.96844 37320 ft 522 kts 156°
2026-04-20 18:15 30.56596 -83.92268 37315 ft 522 kts 156°
2026-04-20 18:16 30.50502 -83.87726 37309 ft 521 kts 156°
2026-04-20 18:16 30.44387 -83.83175 37306 ft 520 kts 156°
2026-04-20 18:17 30.38320 -83.78666 37302 ft 519 kts 156°
2026-04-20 18:17 30.32260 -83.74170 37290 ft 519 kts 156°
2026-04-20 18:18 30.26183 -83.69667 37289 ft 518 kts 156°
2026-04-20 18:18 30.20112 -83.65176 37282 ft 517 kts 156°
2026-04-20 18:19 30.14089 -83.60707 37285 ft 517 kts 156°
2026-04-20 18:19 30.08043 -83.56201 37284 ft 517 kts 156°
2026-04-20 18:20 30.02011 -83.51711 37281 ft 517 kts 156°
2026-04-20 18:20 29.95951 -83.47210 37280 ft 517 kts 156°
2026-04-20 18:21 29.89901 -83.42725 37278 ft 517 kts 156°
2026-04-20 18:21 29.83856 -83.38251 37273 ft 517 kts 156°
2026-04-20 18:22 29.77822 -83.33791 37261 ft 517 kts 156°
2026-04-20 18:22 29.71737 -83.29300 37249 ft 517 kts 156°
2026-04-20 18:23 29.65697 -83.24848 37247 ft 517 kts 156°
2026-04-20 18:23 29.59615 -83.20372 37239 ft 517 kts 156°
2026-04-20 18:24 29.53586 -83.15941 37247 ft 517 kts 156°
2026-04-20 18:24 29.47494 -83.11470 37248 ft 517 kts 156°
2026-04-20 18:25 29.41458 -83.07047 37250 ft 517 kts 156°
2026-04-20 18:25 29.35394 -83.02610 37246 ft 517 kts 155°
2026-04-20 18:26 29.29307 -82.98161 37240 ft 517 kts 155°
2026-04-20 18:26 29.23267 -82.93753 37237 ft 517 kts 155°
2026-04-20 18:27 29.17202 -82.89332 37231 ft 516 kts 155°
2026-04-20 18:27 29.11135 -82.84912 37230 ft 516 kts 155°
2026-04-20 18:28 29.05110 -82.80528 37227 ft 515 kts 155°
2026-04-20 18:28 28.99044 -82.76120 37233 ft 515 kts 155°
2026-04-20 18:29 28.93032 -82.71757 37236 ft 514 kts 155°
2026-04-20 18:29 28.86980 -82.67372 37237 ft 513 kts 155°
2026-04-20 18:30 28.80969 -82.63021 37238 ft 513 kts 155°
2026-04-20 18:30 28.74931 -82.58659 37238 ft 512 kts 155°
2026-04-20 18:31 28.68944 -82.54338 37232 ft 512 kts 155°
2026-04-20 18:31 28.62909 -82.49989 37221 ft 511 kts 155°
2026-04-20 18:32 28.56878 -82.45649 37219 ft 511 kts 155°
2026-04-20 18:32 28.50905 -82.41356 37215 ft 510 kts 155°
2026-04-20 18:33 28.44897 -82.37043 37214 ft 509 kts 155°
2026-04-20 18:33 28.38941 -82.32775 37216 ft 508 kts 155°
2026-04-20 18:34 28.32951 -82.28487 37206 ft 507 kts 155°
2026-04-20 18:34 28.27018 -82.24246 37216 ft 506 kts 155°
2026-04-20 18:35 28.21042 -82.19980 37208 ft 505 kts 156°
2026-04-20 18:35 28.15123 -82.15759 37216 ft 504 kts 156°
2026-04-20 18:36 28.09174 -82.11523 37205 ft 503 kts 156°
2026-04-20 18:36 28.03247 -82.07407 37210 ft 501 kts 157°
2026-04-20 18:37 27.97234 -82.03358 37217 ft 501 kts 158°
2026-04-20 18:37 27.91243 -81.99321 37208 ft 502 kts 157°
2026-04-20 18:38 27.85228 -81.95250 37206 ft 503 kts 157°
2026-04-20 18:38 27.79211 -81.91176 37195 ft 504 kts 157°
2026-04-20 18:39 27.73229 -81.87133 37200 ft 505 kts 157°
2026-04-20 18:39 27.67195 -81.83059 37176 ft 505 kts 157°
2026-04-20 18:40 27.61161 -81.79024 37176 ft 502 kts 161°
2026-04-20 18:40 27.54746 -81.76329 37163 ft 479 kts 178°
2026-04-20 18:41 27.48240 -81.74949 37157 ft 477 kts 179°
2026-04-20 18:41 27.41698 -81.73564 37160 ft 478 kts 179°
2026-04-20 18:42 27.35164 -81.72124 37151 ft 478 kts 178°
2026-04-20 18:42 27.28655 -81.70668 37154 ft 478 kts 178°
2026-04-20 18:43 27.22149 -81.69215 37146 ft 478 kts 178°
2026-04-20 18:43 27.15607 -81.67758 37133 ft 478 kts 178°
2026-04-20 18:44 27.09071 -81.66305 37133 ft 478 kts 178°
2026-04-20 18:44 27.02575 -81.64871 37134 ft 477 kts 179°
2026-04-20 18:45 26.96045 -81.63487 37132 ft 476 kts 179°
2026-04-20 18:45 26.89557 -81.62127 37130 ft 476 kts 179°
2026-04-20 18:46 26.83022 -81.60753 37124 ft 476 kts 179°
2026-04-20 18:46 26.76524 -81.59383 37122 ft 476 kts 179°
2026-04-20 18:47 26.70001 -81.58007 37117 ft 476 kts 179°
2026-04-20 18:47 26.63509 -81.56640 37125 ft 476 kts 179°
2026-04-20 18:48 26.56970 -81.55266 37118 ft 477 kts 179°
2026-04-20 18:48 26.50469 -81.53900 37115 ft 477 kts 179°
2026-04-20 18:49 26.43947 -81.52531 37114 ft 477 kts 179°
2026-04-20 18:49 26.37442 -81.51168 37115 ft 477 kts 179°
2026-04-20 18:50 26.30898 -81.49798 37110 ft 477 kts 179°
2026-04-20 18:50 26.24362 -81.48432 37106 ft 477 kts 179°
2026-04-20 18:51 26.17875 -81.47077 37116 ft 477 kts 178°
2026-04-20 18:51 26.11335 -81.45710 37120 ft 477 kts 178°
2026-04-20 18:52 26.04848 -81.43785 37116 ft 485 kts 172°
2026-04-20 18:52 25.98437 -81.41540 37116 ft 486 kts 171°
2026-04-20 18:53 25.91969 -81.39289 37120 ft 485 kts 171°
2026-04-20 18:53 25.85516 -81.37101 37106 ft 485 kts 172°
2026-04-20 18:54 25.79065 -81.34941 37104 ft 485 kts 172°
2026-04-20 18:54 25.72582 -81.32775 37100 ft 485 kts 172°
2026-04-20 18:55 25.66143 -81.30624 37097 ft 485 kts 172°
2026-04-20 18:55 25.59663 -81.28461 37092 ft 485 kts 172°
2026-04-20 18:56 25.53218 -81.26310 37093 ft 485 kts 172°
2026-04-20 18:56 25.46739 -81.24152 37091 ft 485 kts 171°
2026-04-20 18:57 25.40272 -81.21999 37095 ft 485 kts 171°
2026-04-20 18:57 25.33795 -81.19846 37089 ft 485 kts 171°
2026-04-20 18:58 25.27364 -81.17711 37089 ft 485 kts 171°
2026-04-20 18:58 25.20880 -81.15560 37093 ft 485 kts 171°
2026-04-20 18:59 25.14437 -81.13425 37090 ft 486 kts 171°
2026-04-20 18:59 25.07947 -81.11277 37090 ft 486 kts 171°
2026-04-20 19:00 25.01453 -81.09130 37094 ft 486 kts 171°
2026-04-20 19:00 24.95001 -81.06999 37091 ft 486 kts 171°
2026-04-20 19:01 24.88505 -81.04856 37098 ft 486 kts 171°
2026-04-20 19:01 24.82036 -81.02724 37107 ft 486 kts 171°
2026-04-20 19:02 24.75536 -81.01027 37094 ft 474 kts 183°
2026-04-20 19:02 24.72277 -81.00922 37100 ft 463 kts 191°
2026-04-20 19:02 24.69048 -81.01099 37102 ft 462 kts 192°
2026-04-20 19:03 24.62645 -81.01452 37097 ft 463 kts 191°